Regional Weather Roundup
Issued by NWS

Home | Current Version | Previous Version | Text Only | Print | Product List | Glossary Off
Versions: 1 2 3 4 5 6 7 8 9 10 11 12 13 14 15 16 17 18 19 20 21 22 23 24 25 26 27 28 29 30 31 32 33 34 35 36 37 38 39 40 41 42 43 44 45 46 47 48 49 50

000
ASUS43 KLMK 280710
RWRKY
KENTUCKY REGIONAL WEATHER ROUNDUP
NATIONAL WEATHER SERVICE LOUISVILLE KY
300 AM EDT THU MAY 28 2015

NOTE "FAIR" INDICATES FEW OR NO CLOUDS BELOW 12,000 FEET
WITH NO SIGNIFICANT WEATHER AND/OR OBSTRUCTIONS TO VISIBILITY.

KYZ001>023-026-027-061>063-070>075-280800-
WESTERN AND SOUTH CENTRAL KENTUCKY

CITY           SKY/WX    TMP DP  RH WIND       PRES   REMARKS
PADUCAH        PTCLDY    68  66  93 CALM      30.14S
HENDERSON      MOCLDY    64  63  94 CALM      30.14S
OWENSBORO      MOCLDY    66  65  97 S3        30.16S
HOPKINSVILLE   MOCLDY    66  65  96 CALM      30.15S
BOWLING GREEN  MOCLDY    68  64  87 SW3       30.16F
GLASGOW        CLOUDY    65  65 100 CALM      30.17F
$$

KYZ024-025-028>034-038-045-046-053-280800-
NORTH CENTRAL KENTUCKY

CITY           SKY/WX    TMP DP  RH WIND       PRES   REMARKS
LOUISVILLE/SDF CLOUDY    67  63  87 S6        30.16S
LOUISVILLE/LOU CLOUDY    64  62  93 CALM      30.17S
FORT KNOX      CLOUDY    63  63 100 CALM      30.16R FOG
$$

KYZ035>037-039>044-047>052-055>060-089>105-280800-
NORTHEAST KENTUCKY

CITY           SKY/WX    TMP DP  RH WIND       PRES   REMARKS
LEXINGTON      CLOUDY    61  60  97 S6        30.18R
COVINGTON      CLOUDY    64  61  90 SW3       30.16S
FRANKFORT      CLOUDY    63  60  90 CALM      30.16S
$$

KYZ054-064>069-076>088-106>120-280800-
SOUTHEAST KENTUCKY

CITY           SKY/WX    TMP DP  RH WIND       PRES   REMARKS
JACKSON        PTCLDY    65  61  87 CALM      30.20S
LONDON         CLOUDY    63  58  83 CALM      30.20S
SOMERSET       CLOUDY    59  59 100 CALM      30.20S FOG
MIDDLESBORO    CLOUDY    64  64 100 CALM      30.21S
MONTICELLO     CLOUDY    62  62 100 CALM      30.22S
$$




USA.gov is the U.S. government's official web portal to all federal, state and local government web resources and services.